ROMMA est une association bénévole à but non lucratif. Votre soutien est indispensable : ADHERER à ROMMA ou FAIRE un DON

Le Versoud - (38, Isère)

Vallée du Grésivaudan (220 m)   Longitude: 05° 51' 44" E   Latitude: 45° 13' 06" N Station partenaire n°6
 

Détail journalier du     <<     >>

Température Humidité Pression Vent Dir Rafale Dir. rafale Ensol.
Heure (°C) (%) (hPa) (km/h) (km/h) (min)
01:00 19.086101505SSE0
02:00 19.385101500---0
03:00 18.688101500---0
04:00 18.091101500---0
05:00 17.892101400---0
06:00 17.791101400---0
07:00 17.890101400---0
08:00 18.091101400---0
09:00 19.386101400---15
10:00 21.477101503S35
11:00 22.2681014010E40
12:00 23.466101408N20
13:00 25.158101408NO40
14:00 25.656101406NNO15
15:00 25.4571013010NE10
16:00 25.457101306NNE0
17:00 24.069101306NNE10
18:00 19.38910141ENE15SSO0
19:00 19.291101405NE0
20:00 19.391101405NE0
21:00 19.192101402NE5
22:00 18.894101500---0
23:00 18.293101500---0
minuit 18.194101502NE0

Graphique du 21-06-2019

 

Serveur OMMA